EN

Hourly Weather Ozerki

Today, 14 April, Wednesday

Time Temperature Precipitation Wind Pressure Humidity
00:00 +10°C° 0 mm 3 mps 767 mmHg 73%
01:00 +10°C° 0 mm 3 mps 767 mmHg 79%
02:00 +9°C° 0 mm 3 mps 766 mmHg 85%
03:00 +9°C° 0 mm 3 mps 767 mmHg 93%
04:00 +9°C° 0 mm 3 mps 766 mmHg 94%
05:00 +9°C° 0 mm 3 mps 766 mmHg 95%
06:00 +8°C° 0 mm 4 mps 766 mmHg 96%
07:00 +10°C° 0 mm 4 mps 766 mmHg 92%
08:00 +10°C° 0 mm 5 mps 766 mmHg 89%
09:00 +12°C° 0 mm 5 mps 766 mmHg 84%
10:00 +14°C° 0 mm 5 mps 765 mmHg 76%
11:00 +15°C° 0 mm 5 mps 765 mmHg 67%
12:00 +17°C° 0 mm 5 mps 764 mmHg 59%
13:00 +17°C° 0 mm 5 mps 764 mmHg 57%
14:00 +17°C° 0 mm 5 mps 763 mmHg 56%
15:00 +19°C° 0 mm 5 mps 763 mmHg 54%
16:00 +18°C° 0 mm 4 mps 762 mmHg 59%
17:00 +17°C° 0 mm 4 mps 762 mmHg 64%
18:00 +16°C° 0 mm 3 mps 762 mmHg 70%
19:00 +14°C° 0 mm 3 mps 762 mmHg 72%
20:00 +13°C° 0 mm 3 mps 762 mmHg 73%
21:00 +12°C° 0 mm 3 mps 762 mmHg 75%
22:00 +11°C° 0 mm 3 mps 761 mmHg 77%
23:00 +11°C° 0 mm 3 mps 761 mmHg 78%

Tomorrow, 15 April, Thursday

Time Temperature Precipitation Wind Pressure Humidity
00:00 +10°C° 0 mm 3 mps 760 mmHg 80%
01:00 +10°C° 0 mm 3 mps 760 mmHg 79%
02:00 +10°C° 0 mm 3 mps 760 mmHg 79%
03:00 +9°C° 0 mm 3 mps 760 mmHg 79%
04:00 +9°C° 0 mm 3 mps 760 mmHg 78%
05:00 +9°C° 0 mm 3 mps 760 mmHg 77%
06:00 +10°C° 0 mm 2 mps 760 mmHg 76%
07:00 +12°C° 0 mm 3 mps 759 mmHg 67%
08:00 +14°C° 0 mm 4 mps 759 mmHg 58%
09:00 +17°C° 0 mm 4 mps 759 mmHg 49%
10:00 +17°C° 0 mm 5 mps 759 mmHg 45%
11:00 +19°C° 0 mm 5 mps 759 mmHg 41%
12:00 +21°C° 0 mm 5 mps 758 mmHg 37%
13:00 +21°C° 0 mm 5 mps 758 mmHg 35%
14:00 +21°C° 0 mm 5 mps 758 mmHg 33%
15:00 +22°C° 0 mm 5 mps 758 mmHg 31%
16:00 +20°C° 0 mm 4 mps 757 mmHg 36%
17:00 +19°C° 0 mm 3 mps 757 mmHg 41%
18:00 +18°C° 0 mm 3 mps 757 mmHg 46%
19:00 +17°C° 0 mm 2 mps 757 mmHg 48%
20:00 +16°C° 0 mm 2 mps 757 mmHg 49%
21:00 +15°C° 0 mm 2 mps 757 mmHg 50%
22:00 +14°C° 0 mm 2 mps 757 mmHg 53%
23:00 +13°C° 0 mm 2 mps 757 mmHg 55%

Day after tomorrow, 16 April, Friday

Time Temperature Precipitation Wind Pressure Humidity
00:00 +13°C° 0 mm 2 mps 756 mmHg 58%
01:00 +12°C° 0 mm 2 mps 756 mmHg 59%
02:00 +12°C° 0 mm 2 mps 756 mmHg 60%
03:00 +12°C° 0 mm 2 mps 756 mmHg 62%
04:00 +10°C° 0 mm 2 mps 756 mmHg 62%
05:00 +10°C° 0 mm 2 mps 757 mmHg 62%
06:00 +10°C° 0 mm 2 mps 757 mmHg 63%
07:00 +12°C° 0 mm 3 mps 757 mmHg 56%
08:00 +14°C° 0 mm 3 mps 757 mmHg 50%
09:00 +17°C° 0 mm 3 mps 757 mmHg 44%
10:00 +18°C° 0 mm 4 mps 757 mmHg 39%
11:00 +20°C° 0 mm 4 mps 757 mmHg 35%
12:00 +21°C° 0 mm 4 mps 757 mmHg 31%
13:00 +21°C° 0 mm 4 mps 757 mmHg 29%
14:00 +21°C° 0 mm 4 mps 757 mmHg 28%
15:00 +21°C° 0 mm 4 mps 757 mmHg 27%
16:00 +20°C° 0 mm 4 mps 757 mmHg 32%
17:00 +19°C° 0 mm 3 mps 757 mmHg 38%
18:00 +18°C° 0 mm 3 mps 757 mmHg 44%
19:00 +17°C° 0 mm 3 mps 757 mmHg 48%
20:00 +14°C° 0 mm 3 mps 757 mmHg 52%
21:00 +13°C° 0 mm 3 mps 757 mmHg 56%
22:00 +12°C° 0 mm 4 mps 758 mmHg 64%
23:00 +12°C° 0 mm 4 mps 758 mmHg 72%

17 April, Saturday

Time Temperature Precipitation Wind Pressure Humidity
00:00 +10°C° 0 mm 5 mps 758 mmHg 80%
01:00 +9°C° 0 mm 5 mps 758 mmHg 83%
02:00 +9°C° 0 mm 5 mps 758 mmHg 86%
03:00 +8°C° 0 mm 5 mps 758 mmHg 89%
04:00 +8°C° 0 mm 5 mps 759 mmHg 88%
05:00 +7°C° 0 mm 5 mps 759 mmHg 87%
06:00 +7°C° 0 mm 5 mps 759 mmHg 86%
07:00 +8°C° 0 mm 6 mps 759 mmHg 79%
08:00 +10°C° 0 mm 6 mps 760 mmHg 73%
09:00 +11°C° 0 mm 6 mps 760 mmHg 66%
10:00 +13°C° 0 mm 6 mps 760 mmHg 62%
11:00 +14°C° 0 mm 6 mps 760 mmHg 57%
12:00 +15°C° 0 mm 6 mps 759 mmHg 52%
13:00 +15°C° 0 mm 6 mps 759 mmHg 50%
14:00 +16°C° 0 mm 6 mps 759 mmHg 47%
15:00 +16°C° 0 mm 6 mps 759 mmHg 45%
16:00 +15°C° 0 mm 6 mps 759 mmHg 45%
17:00 +14°C° 0 mm 6 mps 760 mmHg 45%
18:00 +13°C° 0 mm 5 mps 760 mmHg 46%
19:00 +12°C° 0 mm 5 mps 760 mmHg 49%
20:00 +10°C° 0 mm 5 mps 760 mmHg 51%
21:00 +8°C° 0 mm 5 mps 761 mmHg 54%
22:00 +8°C° 0 mm 5 mps 761 mmHg 55%
23:00 +7°C° 0 mm 5 mps 761 mmHg 57%

18 April, Sunday

Time Temperature Precipitation Wind Pressure Humidity
00:00 +6°C° 0 mm 5 mps 761 mmHg 58%
01:00 +5°C° 0 mm 4 mps 761 mmHg 60%
02:00 +5°C° 0 mm 4 mps 761 mmHg 63%
03:00 +4°C° 0 mm 4 mps 761 mmHg 65%
04:00 +4°C° 0 mm 4 mps 761 mmHg 66%
05:00 +5°C° 0 mm 3 mps 761 mmHg 66%
06:00 +5°C° 0 mm 3 mps 761 mmHg 67%
07:00 +6°C° 0 mm 4 mps 761 mmHg 60%
08:00 +8°C° 0 mm 4 mps 761 mmHg 54%
09:00 +10°C° 0 mm 5 mps 761 mmHg 47%
10:00 +12°C° 0 mm 5 mps 761 mmHg 45%
11:00 +12°C° 0 mm 5 mps 761 mmHg 43%
12:00 +13°C° 0 mm 5 mps 761 mmHg 40%
13:00 +14°C° 0 mm 5 mps 761 mmHg 39%
14:00 +14°C° 0 mm 6 mps 761 mmHg 39%
15:00 +14°C° 0 mm 6 mps 761 mmHg 38%
16:00 +13°C° 0 mm 5 mps 761 mmHg 41%
17:00 +13°C° 0 mm 5 mps 761 mmHg 44%
18:00 +12°C° 0 mm 5 mps 761 mmHg 47%
19:00 +10°C° 0 mm 5 mps 761 mmHg 52%
20:00 +9°C° 0 mm 5 mps 762 mmHg 56%
21:00 +8°C° 0 mm 6 mps 762 mmHg 60%
22:00 +7°C° 0 mm 5 mps 762 mmHg 61%
23:00 +6°C° 0 mm 5 mps 763 mmHg 62%

19 April, Monday

Time Temperature Precipitation Wind Pressure Humidity
00:00 +5°C° 0 mm 5 mps 763 mmHg 62%
01:00 +5°C° 0 mm 5 mps 763 mmHg 61%
02:00 +3°C° 0 mm 6 mps 764 mmHg 59%
03:00 +2°C° 0 mm 6 mps 764 mmHg 58%
04:00 +2°C° 0 mm 6 mps 764 mmHg 57%
05:00 +1°C° 0 mm 6 mps 764 mmHg 57%
06:00 +1°C° 0 mm 6 mps 764 mmHg 56%
07:00 +2°C° 0 mm 7 mps 764 mmHg 55%
08:00 +3°C° 0 mm 7 mps 764 mmHg 54%
09:00 +4°C° 0 mm 7 mps 765 mmHg 53%
10:00 +5°C° 0 mm 7 mps 765 mmHg 49%
11:00 +6°C° 0 mm 7 mps 765 mmHg 46%
12:00 +7°C° 0 mm 8 mps 765 mmHg 42%
13:00 +8°C° 0 mm 7 mps 765 mmHg 39%
14:00 +8°C° 0 mm 7 mps 765 mmHg 36%
15:00 +8°C° 0 mm 7 mps 765 mmHg 34%
16:00 +6°C° 0 mm 7 mps 765 mmHg 35%
17:00 +7°C° 0 mm 6 mps 765 mmHg 36%
18:00 +5°C° 0 mm 6 mps 765 mmHg 37%
19:00 +5°C° 0 mm 5 mps 765 mmHg 39%
20:00 +5°C° 0 mm 5 mps 765 mmHg 42%
21:00 +3°C° 0 mm 5 mps 766 mmHg 44%
22:00 +2°C° 0 mm 5 mps 766 mmHg 45%
23:00 +2°C° 0 mm 5 mps 766 mmHg 46%
Show more

We Need Your Consent

Meteoprog and our Service Providers may store and access personal data such as cookies, device identifiers or other similar technologies on your device and process such data to personalise content and ads, as well as provide social media features and to analyse the traffic.

  • Store and/or access information on your device

    Cookies, device identifiers or other information can be stored or accessed on your device for the purposes indicated above.

  • Personalised ads and content, ad and content measurement, audience insights, and products development

    Ads and content can be personalised based on a profile. More data can be added to better personalise ads and content. Ad and content performance can be measured. Insights about the audience who saw the ads and content can be derived. Such data can be used to develop or improve user’s experience, systems and software.

By clicking ‘I Agree’ you will allow the use of indicated cookies, device identifiers, web beacons or other similar technologies. Your settings can be changed in the browser on your device.

For certain purposes, legitimate interests may be relied on, rather than consent. You can read more about this in our Privacy and Cookie Policy.